Regional Weather Roundup
Issued by NWS Green Bay, WI

Home | Current Version | Previous Version | Graphics & Text | Print | Product List | Glossary Off
Versions: 1 2 3 4 5 6 7 8 9 10 11 12 13 14 15 16 17 18 19 20 21 22 23 24 25 26 27 28 29 30 31 32 33 34 35 36 37 38 39 40 41 42 43 44 45 46 47 48 49 50

000
ASUS43 KGRB 291700
RWRGRB

NORTH-CENTRAL AND NORTHEAST WISCONSIN REGIONAL WEATHER ROUNDUP
NATIONAL WEATHER SERVICE GREEN BAY WI
1200 PM CDT WED JUL 29 2015

WIZ005-009-010>012-018-019-291800-
NORTH CENTRAL WISCONSIN

CITY           SKY/WX    TMP DP  RH WIND       PRES   REMARKS
IRONWOOD       CLOUDY    70  52  52 W22G30    29.76R
MANITOWISH WTR NOT AVBL
ARBOR VITAE    NOT AVBL
EAGLE RIVER    NOT AVBL
LAND O LAKES   NOT AVBL
RHINELANDER    SUNNY     78  51  38 W21G36    29.84F
PHILLIPS       SUNNY     73  53  49 SW18G30   29.83F
ANTIGO         NOT AVBL
TOMAHAWK       NOT AVBL
MERRILL        NOT AVBL
$$

WIZ013-073-291800-
NORTHEAST WISCONSIN

CITY           SKY/WX    TMP DP  RH WIND       PRES   REMARKS
IRON MOUNTAIN  SUNNY     80  50  34 SW20G31   29.79S
MARINETTE      SUNNY     81  54  39 W10G20    29.81F
$$

WIZ017-030-035>037-045-291800-
CENTRAL WISCONSIN

CITY           SKY/WX    TMP DP  RH WIND       PRES   REMARKS
MEDFORD        NOT AVBL
WAUSAU         SUNNY     78  50  37 W24G35    29.87F
MOSINEE        NOT AVBL
MARSHFIELD     SUNNY     78  47  33 W24G35    29.91F
WISC RAPIDS    SUNNY     79  48  33 W21G31    29.94S
STEVENS POINT  NOT AVBL
WAUPACA        NOT AVBL
SHAWANO        NOT AVBL
CLINTONVILLE   NOT AVBL
$$

WIZ038-039-048-051-291800-
FOX VALLEY

CITY           SKY/WX    TMP DP  RH WIND       PRES   REMARKS
NWS GREEN BAY  SUNNY     81  53  37 W23G32    29.87F
APPLETON       MOSUNNY   81  48  32 W20G26    29.91F
OSHKOSH        SUNNY     81  51  35 W15G25    29.91F
FOND DU LAC    SUNNY     82  50  32 W14G22    29.93F
$$

WIZ022-050-052-291800-
EAST CENTRAL WISCONSIN

CITY           SKY/WX    TMP DP  RH WIND       PRES   REMARKS
STURGEON BAY   SUNNY     81  52  36 W20G29    29.86F
MANITOWOC      NOT AVBL
SHEBOYGAN      MOSUNNY   82  52  35 W16G22    29.92F
$$

LMZ563-521-522-541>543-291800-
LAKESHORE

STATION/POSITION TIME  TEMP    WIND        PRES    VSBY  WAVE
                       AIR SEA DIR/SP/G                  HT/PER
                 (UTC) (F)     (DEG/KT/KT) (MB)    (MI)  (FT/S)
SHEBOYGAN LKSHOR 1600   78     280/ 17/ 19 1013.1S
KEWAUNEE LKSHORE 1600   78     260/ 13/ 19 1011.2F
ALGOMA MARINA    1612          250/ 12/ 20   N/A
NORTHPORT PIER   1600   78     230/  5/ 13 1009.8F
N MID LAKE BUOY  1550   72 69  240/ 14/ 16 1009.4S         2/ 4
CHAMBERS ISLAND  1600   78     200/  8/ 14 1009.5F
MENOMINEE LKSHOR 1600   78     250/ 17/ 27 1010.9F
$$



USA.gov is the U.S. government's official web portal to all federal, state and local government web resources and services.